Location: Mentone
(34.5413°N, 85.5351°W)
Time: 13:31:56
(UTC-05:00)

A-11 Canister half - Visible Passes

Search period start: 27 June 2016 00:00
Search period end: 07 July 2016 00:00
Orbit: 1526 x 1683 km, 47.3° (Epoch: 25 June)

Date Brightness Start Highest point End Pass type
(mag) Time Alt. Az. Time Alt. Az. Time Alt. Az.
27 Jun 10.3 21:00:05 10° WNW 21:07:26 27° SW 21:14:54 10° S visible
28 Jun 10.3 20:38:22 10° WNW 20:45:56 29° SW 20:53:35 10° S visible
29 Jun 10.3 20:16:40 10° WNW 20:24:25 31° SW 20:32:16 10° S visible
